DELTA 1 DEB

Satellite information

Favourite Embed

Satellite Type and Status

DEBRISIN ORBIT

Key statistics

Satellite DELTA 1 DEB at a glance.

Uptime

17232

Days in orbit

Revolutions

≈ 13.9

Per day

Orbit

SSO

Sun Synchronous Orbit

Inclination

99.0

Latest

Satellite identification and parameters

Extended collection of information and parameters for DELTA 1 DEB.

Object identification

Identified? True

Debris? True

Object name: DELTA 1 DEB

International designator: 1978-026DP

Object number (NORAD): 12270

Object ID (CCSDS): 12270

Country: UNITED STATES OF AMERICA (US)

Current information (Y/N): Y

RCS size: SMALL

Orbital parameters

Period: 103.55 minutes

Inclination: 99.0471 deg

SMA: 7304.541 km

Apoapsis: 974.738 km

Periapsis: 878.075 km

RAAN: 56.5697 deg

Eccentricy: 0.0066166

Argument of periapsis: 185.2558 deg

Mean anomaly: 238.501 deg

Mean motion: 13.90635548 rev/day

Mean motion (dot): 0.00000141 rev/day2

B* drag term: 0.0001452 1/REarth

Two-line elements (TLE)

Creation date: May 8, 2025, 3:01 a.m.

Reference frame: TEME

Reference center: EARTH

Epoch: May 7, 2025, 5:57 p.m. UTC

TLE line 0: 0 DELTA 1 DEB

TLE line 1: 1 12270U 78026DP 25127.74834573 .00000141 00000-0 14520-3 0 9994

TLE line 2: 2 12270 99.0471 56.5697 0066166 185.2558 238.5010 13.90635548243957

Live tracking on map

Real-time ground track for satellite DELTA 1 DEB.

In-orbit conjunctions

A list of the most updated potential collisions computed for object DELTA 1 DEB.

Target Orbit TCA Probability of collision Miss distance Type
FENGYUN 1C DEB SSO 2024-11-08 23:30:50 0.002596217 157.0 (m) DEBRIS
THOR ABLESTAR DEB LEO 2024-10-07 13:50:09 0.0001036899 44.0 (m) DEBRIS

Associated space launch

Earth observation satellite

DELTA 1 DEB was lifted into orbit during the mission ‘Delta 2910 | Landsat 3’, on board a Delta 2910 space rocket.

The launch took place on March 5, 1978, 5:54 p.m. from Space Launch Complex 2W.

For more information about the launch, click the button.

Launch to space Delta 2910 | Landsat 3
Delta 2910 | Landsat 3

Agency: N/A

Status: Launch Successful

Launch date: March 5, 1978, 5:54 p.m. UTC

Rocket: Delta 2910

Launch pad: Space Launch Complex 2W

Location: Vandenberg SFB, CA, USA

...

Latest news about this satellite

There are no fresh news available about this satellite. Check back as we update our databases every day.


Newsletter sign-up

Weekly statistics, charts and insights to help you stay on top of the space industry.